Location: San Antonio
(29.4240°N, 98.4930°W)
Time: 02:55:43
(UTC-05:00)

A-11 Canister half - Visible Passes

Search period start: 15 July 2024 00:00
Search period end: 25 July 2024 00:00
Orbit: 1515 x 1685 km, 47.2° (Epoch: 14 July)

Date Brightness Start Highest point End Pass type
(mag) Time Alt. Az. Time Alt. Az. Time Alt. Az.
15 Jul 10.6 21:36:11 10° WNW 21:43:56 26° SW 21:51:32 10° S visible
16 Jul 10.5 21:12:54 10° WNW 21:21:00 29° SW 21:28:56 10° S visible
17 Jul 10.5 20:49:40 10° WNW 20:58:05 31° SW 21:06:18 10° S visible
